,,,PA_Meas_PMT16A,,PR_Meas_QMR101_102,,RH_Meas_QMH101,,SR_Meas_QMS101,,TA_Meas_QMH101,,GenWind,,GenWind,
date,time,status,PA,status,PR,status,RH,status,SR,status,TA,status,DirAvg,status,SpdAvg,
2011-05-23, 00:00:04,VALID,1000.79,VALID,0,VALID,93.6078,VALID,0,VALID,23.2719,VALID,102,VALID,0,
2011-05-23, 00:01:04,VALID,1000.75,VALID,0,VALID,93.5849,VALID,0,VALID,23.2719,VALID,102,VALID,0,
2011-05-23, 00:02:04,VALID,1000.74,VALID,0,VALID,93.5773,VALID,0,VALID,23.2719,VALID,102,VALID,0,
2011-05-23, 00:03:04,VALID,1000.74,VALID,0,VALID,93.5773,VALID,0,VALID,23.2719,VALID,102,VALID,0,
2011-05-23, 00:04:04,VALID,1000.72,VALID,0,VALID,93.5849,VALID,0,VALID,23.2719,VALID,102,VALID,0,
2011-05-23, 00:05:04,VALID,1000.7,VALID,0,VALID,93.5926,VALID,0,VALID,23.2524,VALID,99,VALID,0,
2011-05-23, 00:06:04,VALID,1000.73,VALID,0,VALID,93.5773,VALID,0,VALID,23.2524,VALID,96,VALID,0,
2011-05-23, 00:07:04,VALID,1000.69,VALID,0,VALID,93.5773,VALID,0,VALID,23.2524,VALID,97,VALID,0.0914062,
2011-05-23, 00:08:04,VALID,1000.69,VALID,0,VALID,93.5697,VALID,0,VALID,23.2329,VALID,97,VALID,0.585156,
2011-05-23, 00:09:04,VALID,1000.69,VALID,0,VALID,93.5544,VALID,0,VALID,23.2329,VALID,101,VALID,0.653125,
2011-05-23, 00:10:04,VALID,1000.65,VALID,0,VALID,93.5468,VALID,0,VALID,23.2737,VALID,102,VALID,0.722266,
2011-05-23, 00:11:04,VALID,1000.62,VALID,0,VALID,93.5468,VALID,0,VALID,23.2719,VALID,110,VALID,0.797656,
2011-05-23, 00:12:04,VALID,1000.59,VALID,0,VALID,93.5391,VALID,0,VALID,23.2719,VALID,111,VALID,0.560938,
2011-05-23, 00:13:04,VALID,1000.6,VALID,0,VALID,93.5315,VALID,0,VALID,23.2915,VALID,128,VALID,1.01914,
2011-05-23, 00:14:04,VALID,1000.56,VALID,0,VALID,93.5086,VALID,0,VALID,23.2915,VALID,129,VALID,0.558984,
2011-05-23, 00:15:04,VALID,1000.54,VALID,0,VALID,93.501,VALID,0,VALID,23.3323,VALID,129,VALID,0,
2011-05-23, 00:16:04,VALID,1000.51,VALID,0,VALID,93.5086,VALID,0,VALID,23.3127,VALID,129,VALID,0.567578,
2011-05-23, 00:17:04,VALID,1000.52,VALID,0,VALID,93.4934,VALID,0,VALID,23.3127,VALID,129,VALID,0,
2011-05-23, 00:18:04,VALID,1000.49,VALID,0,VALID,93.4781,VALID,0,VALID,23.2915,VALID,129,VALID,0,
2011-05-23, 00:19:04,VALID,1000.47,VALID,0,VALID,93.4705,VALID,0,VALID,23.2719,VALID,129,VALID,0,
2011-05-23, 00:20:04,VALID,1000.47,VALID,0,VALID,93.4552,VALID,0,VALID,23.2719,VALID,129,VALID,0,
2011-05-23, 00:21:04,VALID,1000.44,VALID,0,VALID,93.4476,VALID,0,VALID,23.2915,VALID,128,VALID,0.4125,
2011-05-23, 00:22:04,VALID,1000.47,VALID,0,VALID,93.4476,VALID,0,VALID,23.2915,VALID,91,VALID,0.741016,
2011-05-23, 00:23:04,VALID,1000.43,VALID,0,VALID,93.4323,VALID,0,VALID,23.2915,VALID,92,VALID,0.529297,
2011-05-23, 00:24:04,VALID,1000.39,VALID,0,VALID,93.4171,VALID,0,VALID,23.311,VALID,92,VALID,0.0222656,
2011-05-23, 00:25:04,VALID,1000.36,VALID,0,VALID,93.4247,VALID,0,VALID,23.3305,VALID,92,VALID,0,
2011-05-23, 00:26:04,VALID,1000.35,VALID,0,VALID,93.4171,VALID,0,VALID,23.311,VALID,92,VALID,0,
2011-05-23, 00:27:04,VALID,1000.29,VALID,0,VALID,93.4094,VALID,0,VALID,23.311,VALID,34,VALID,0,
2011-05-23, 00:28:04,VALID,1000.28,VALID,0,VALID,93.4171,VALID,0,VALID,23.3305,VALID,34,VALID,0,
2011-05-23, 00:29:04,VALID,1000.29,VALID,0,VALID,93.4018,VALID,0,VALID,23.3518,VALID,34,VALID,0,
2011-05-23, 00:30:04,VALID,1000.26,VALID,0,VALID,93.3942,VALID,0.112286,VALID,23.3695,VALID,34,VALID,0,
2011-05-23, 00:31:04,VALID,1000.26,VALID,0,VALID,93.3866,VALID,0.112286,VALID,23.35,VALID,34,VALID,0,
2011-05-23, 00:32:04,VALID,1000.26,VALID,0,VALID,93.3942,VALID,0.112286,VALID,23.3482,VALID,34,VALID,0,
2011-05-23, 00:33:04,VALID,1000.25,VALID,0,VALID,93.3637,VALID,0.112286,VALID,23.3695,VALID,34,VALID,0,
2011-05-23, 00:34:04,VALID,1000.26,VALID,0,VALID,93.3637,VALID,0.112286,VALID,23.3482,VALID,34,VALID,0,
2011-05-23, 00:35:04,VALID,1000.24,VALID,0,VALID,93.356,VALID,0.112286,VALID,23.3482,VALID,34,VALID,0,
2011-05-23, 00:36:04,VALID,1000.25,VALID,0,VALID,93.356,VALID,0,VALID,23.3482,VALID,34,VALID,0,
2011-05-23, 00:37:04,VALID,1000.21,VALID,0,VALID,93.3484,VALID,0.112286,VALID,23.3287,VALID,34,VALID,0,
2011-05-23, 00:38:04,VALID,1000.19,VALID,0,VALID,93.3179,VALID,0.112286,VALID,23.35,VALID,34,VALID,0,
2011-05-23, 00:39:04,VALID,1000.16,VALID,0,VALID,93.3331,VALID,0,VALID,23.3305,VALID,34,VALID,0,
2011-05-23, 00:40:04,VALID,1000.14,VALID,0,VALID,93.3331,VALID,0.112286,VALID,23.3287,VALID,34,VALID,0,
2011-05-23, 00:41:04,VALID,1000.12,VALID,0,VALID,93.3331,VALID,0,VALID,23.3092,VALID,34,VALID,0,
2011-05-23, 00:42:04,VALID,1000.1,VALID,0,VALID,93.3179,VALID,0.112286,VALID,23.3287,VALID,34,VALID,0,
2011-05-23, 00:43:04,VALID,1000.11,VALID,0,VALID,93.3103,VALID,0.112286,VALID,23.3287,VALID,34,VALID,0,
2011-05-23, 00:44:04,VALID,1000.07,VALID,0,VALID,93.3331,VALID,0.112286,VALID,23.3287,VALID,34,VALID,0,
2011-05-23, 00:45:04,VALID,1000.1,VALID,0,VALID,93.3255,VALID,0,VALID,23.3305,VALID,34,VALID,0,
2011-05-23, 00:46:04,VALID,1000.07,VALID,0,VALID,93.3103,VALID,0,VALID,23.3305,VALID,34,VALID,0,
2011-05-23, 00:47:04,VALID,1000.05,VALID,0,VALID,93.3103,VALID,0,VALID,23.35,VALID,34,VALID,0,
2011-05-23, 00:48:04,VALID,1000.04,VALID,0,VALID,93.3103,VALID,0,VALID,23.35,VALID,34,VALID,0,
2011-05-23, 00:49:04,VALID,1000.01,VALID,0,VALID,93.3103,VALID,0,VALID,23.35,VALID,34,VALID,0,
2011-05-23, 00:50:04,VALID,999.986,VALID,0,VALID,93.3179,VALID,0,VALID,23.35,VALID,34,VALID,0,
2011-05-23, 00:51:04,VALID,1000,VALID,0,VALID,93.295,VALID,0,VALID,23.35,VALID,34,VALID,0,
2011-05-23, 00:52:04,VALID,1000.01,VALID,0,VALID,93.3026,VALID,0,VALID,23.3695,VALID,34,VALID,0,
2011-05-23, 00:53:04,VALID,1000.02,VALID,0,VALID,93.295,VALID,0,VALID,23.3695,VALID,34,VALID,0,
2011-05-23, 00:54:04,VALID,999.983,VALID,0,VALID,93.2874,VALID,0,VALID,23.3908,VALID,34,VALID,0,
2011-05-23, 00:55:04,VALID,999.986,VALID,0,VALID,93.2721,VALID,0,VALID,23.3695,VALID,34,VALID,0,
2011-05-23, 00:56:04,VALID,999.95,VALID,0,VALID,93.2492,VALID,0,VALID,23.389,VALID,34,VALID,0,
2011-05-23, 00:57:04,VALID,999.945,VALID,0,VALID,93.2645,VALID,0,VALID,23.4298,VALID,34,VALID,0,
2011-05-23, 00:58:04,VALID,999.934,VALID,0,VALID,93.2416,VALID,0,VALID,23.4085,VALID,34,VALID,0,
2011-05-23, 00:59:04,VALID,999.901,VALID,0,VALID,93.234,VALID,0,VALID,23.4085,VALID,34,VALID,0,
2011-05-23, 01:00:04,VALID,999.865,VALID,0,VALID,93.2111,VALID,0,VALID,23.428,VALID,34,VALID,0,
2011-05-23, 01:01:04,VALID,999.874,VALID,0,VALID,93.2111,VALID,0,VALID,23.428,VALID,34,VALID,0,
2011-05-23, 01:02:04,VALID,999.852,VALID,0,VALID,93.2034,VALID,0,VALID,23.428,VALID,34,VALID,0,
2011-05-23, 01:03:04,VALID,999.866,VALID,0,VALID,93.1958,VALID,0,VALID,23.4475,VALID,34,VALID,0.790234,
2011-05-23, 01:04:04,VALID,999.858,VALID,0,VALID,93.1729,VALID,0,VALID,23.4085,VALID,31,VALID,0.96875,
2011-05-23, 01:05:04,VALID,999.833,VALID,0,VALID,93.1577,VALID,0,VALID,23.4085,VALID,27,VALID,0.952344,
2011-05-23, 01:06:04,VALID,999.849,VALID,0,VALID,93.15,VALID,0,VALID,23.4085,VALID,27,VALID,0.942969,
2011-05-23, 01:07:04,VALID,999.871,VALID,0,VALID,93.1195,VALID,0,VALID,23.389,VALID,27,VALID,0.936328,
2011-05-23, 01:08:04,VALID,999.888,VALID,0,VALID,93.1271,VALID,0,VALID,23.35,VALID,27,VALID,0.730078,
2011-05-23, 01:09:04,VALID,999.88,VALID,0,VALID,93.0966,VALID,0,VALID,23.35,VALID,27,VALID,0.651172,
2011-05-23, 01:10:04,VALID,999.826,VALID,0,VALID,93.0966,VALID,0,VALID,23.3518,VALID,27,VALID,0.412109,
2011-05-23, 01:11:04,VALID,999.842,VALID,0,VALID,93.0966,VALID,0,VALID,23.3323,VALID,27,VALID,0.410547,
2011-05-23, 01:12:04,VALID,999.814,VALID,0,VALID,93.0814,VALID,0,VALID,23.311,VALID,27,VALID,0.290234,
2011-05-23, 01:13:04,VALID,999.777,VALID,0,VALID,93.0661,VALID,0,VALID,23.2915,VALID,27,VALID,0,
2011-05-23, 01:14:04,VALID,999.767,VALID,0,VALID,93.0966,VALID,0,VALID,23.311,VALID,27,VALID,0,
2011-05-23, 01:15:04,VALID,999.739,VALID,0,VALID,93.089,VALID,0,VALID,23.3305,VALID,27,VALID,0,
2011-05-23, 01:16:04,VALID,999.709,VALID,0,VALID,93.1043,VALID,0.112286,VALID,23.3305,VALID,27,VALID,0,
2011-05-23, 01:17:04,VALID,999.692,VALID,0,VALID,93.0966,VALID,0.112286,VALID,23.3092,VALID,27,VALID,0,
2011-05-23, 01:18:04,VALID,999.696,VALID,0,VALID,93.1119,VALID,0.112286,VALID,23.3287,VALID,27,VALID,0,
2011-05-23, 01:19:04,VALID,999.669,VALID,0,VALID,93.1119,VALID,0.112286,VALID,23.3092,VALID,27,VALID,0,
2011-05-23, 01:20:04,VALID,999.68,VALID,0,VALID,93.1119,VALID,0,VALID,23.3287,VALID,27,VALID,0,
2011-05-23, 01:21:04,VALID,999.669,VALID,0,VALID,93.1119,VALID,0.112286,VALID,23.3287,VALID,27,VALID,0,
2011-05-23, 01:22:04,VALID,999.641,VALID,0,VALID,93.1119,VALID,0.112286,VALID,23.3092,VALID,27,VALID,0.276172,
2011-05-23, 01:23:04,VALID,999.616,VALID,0,VALID,93.1195,VALID,0,VALID,23.3092,VALID,27,VALID,0.356641,
2011-05-23, 01:24:04,VALID,999.597,VALID,0,VALID,93.1348,VALID,0,VALID,23.2897,VALID,27,VALID,0,
2011-05-23, 01:25:04,VALID,999.571,VALID,0,VALID,93.1348,VALID,0,VALID,23.2897,VALID,27,VALID,0,
2011-05-23, 01:26:04,VALID,999.565,VALID,0,VALID,93.1271,VALID,0,VALID,23.2897,VALID,27,VALID,0,
2011-05-23, 01:27:04,VALID,999.564,VALID,0,VALID,93.1271,VALID,0.112286,VALID,23.3092,VALID,27,VALID,0,
2011-05-23, 01:28:04,VALID,999.582,VALID,0,VALID,93.1119,VALID,0,VALID,23.3092,VALID,27,VALID,0,
2011-05-23, 01:29:04,VALID,999.571,VALID,0,VALID,93.1348,VALID,0,VALID,23.3092,VALID,27,VALID,0,
2011-05-23, 01:30:04,VALID,999.568,VALID,0,VALID,93.1348,VALID,0,VALID,23.2915,VALID,27,VALID,0,
2011-05-23, 01:31:04,VALID,999.545,VALID,0,VALID,93.1348,VALID,0,VALID,23.2915,VALID,27,VALID,0,
2011-05-23, 01:32:04,VALID,999.512,VALID,0,VALID,93.1119,VALID,0,VALID,23.2932,VALID,27,VALID,0,
2011-05-23, 01:33:04,VALID,999.517,VALID,0,VALID,93.1271,VALID,0,VALID,23.3127,VALID,27,VALID,0,
2011-05-23, 01:34:04,VALID,999.48,VALID,0,VALID,93.1348,VALID,0,VALID,23.3127,VALID,27,VALID,0.587891,
2011-05-23, 01:35:04,VALID,999.462,VALID,0,VALID,93.1195,VALID,0,VALID,23.3323,VALID,27,VALID,0.355078,
2011-05-23, 01:36:04,VALID,999.446,VALID,0,VALID,93.1119,VALID,0,VALID,23.3127,VALID,27,VALID,0.00195313,
2011-05-23, 01:37:04,VALID,999.431,VALID,0,VALID,93.1195,VALID,0,VALID,23.2915,VALID,27,VALID,0,
2011-05-23, 01:38:04,VALID,999.414,VALID,0,VALID,93.1043,VALID,0,VALID,23.2719,VALID,27,VALID,0,
2011-05-23, 01:39:04,VALID,999.374,VALID,0,VALID,93.1043,VALID,0,VALID,23.3127,VALID,27,VALID,0,
2011-05-23, 01:40:04,VALID,999.342,VALID,0,VALID,93.1271,VALID,0,VALID,23.2915,VALID,27,VALID,0,
2011-05-23, 01:41:04,VALID,999.341,VALID,0,VALID,93.1271,VALID,0,VALID,23.3127,VALID,27,VALID,0,
2011-05-23, 01:42:04,VALID,999.332,VALID,0,VALID,93.15,VALID,0,VALID,23.311,VALID,27,VALID,0,
2011-05-23, 01:43:04,VALID,999.304,VALID,0,VALID,93.1577,VALID,0,VALID,23.3323,VALID,27,VALID,0,
2011-05-23, 01:44:04,VALID,999.29,VALID,0,VALID,93.1805,VALID,0,VALID,23.311,VALID,27,VALID,0,
2011-05-23, 01:45:04,VALID,999.257,VALID,0,VALID,93.2111,VALID,0,VALID,23.3518,VALID,27,VALID,0,
2011-05-23, 01:46:04,VALID,999.244,VALID,0,VALID,93.2187,VALID,0,VALID,23.3323,VALID,27,VALID,0,
2011-05-23, 01:47:04,VALID,999.204,VALID,0,VALID,93.2187,VALID,0,VALID,23.3323,VALID,27,VALID,0.501562,
2011-05-23, 01:48:04,VALID,999.208,VALID,0,VALID,93.234,VALID,0,VALID,23.3518,VALID,27,VALID,0.430859,
2011-05-23, 01:49:04,VALID,999.2,VALID,0,VALID,93.2492,VALID,0,VALID,23.3323,VALID,27,VALID,0,
2011-05-23, 01:50:04,VALID,999.145,VALID,0,VALID,93.2492,VALID,0,VALID,23.311,VALID,27,VALID,0,
2011-05-23, 01:51:04,VALID,999.152,VALID,0,VALID,93.2721,VALID,0,VALID,23.2915,VALID,27,VALID,0,
2011-05-23, 01:52:04,VALID,999.156,VALID,0,VALID,93.2721,VALID,0,VALID,23.2915,VALID,27,VALID,0,
2011-05-23, 01:53:04,VALID,999.154,VALID,0,VALID,93.2492,VALID,0,VALID,23.3323,VALID,36,VALID,0,
2011-05-23, 01:54:04,VALID,999.157,VALID,0,VALID,93.2874,VALID,0,VALID,23.3323,VALID,147,VALID,0,
2011-05-23, 01:55:04,VALID,999.157,VALID,0,VALID,93.2797,VALID,0,VALID,23.3518,VALID,147,VALID,0.45625,
2011-05-23, 01:56:04,VALID,999.185,VALID,0,VALID,93.2874,VALID,0,VALID,23.3518,VALID,147,VALID,0.346484,
2011-05-23, 01:57:04,VALID,999.208,VALID,0,VALID,93.3103,VALID,0,VALID,23.3305,VALID,147,VALID,0,
2011-05-23, 01:58:04,VALID,999.212,VALID,0,VALID,93.3026,VALID,0,VALID,23.3713,VALID,147,VALID,0,
2011-05-23, 01:59:04,VALID,999.195,VALID,0,VALID,93.3026,VALID,0,VALID,23.3713,VALID,147,VALID,0,
2011-05-23, 02:00:04,VALID,999.187,VALID,0,VALID,93.3179,VALID,0,VALID,23.35,VALID,147,VALID,0,
2011-05-23, 02:01:04,VALID,999.154,VALID,0,VALID,93.3179,VALID,0,VALID,23.35,VALID,147,VALID,0,
2011-05-23, 02:02:04,VALID,999.128,VALID,0,VALID,93.3255,VALID,0,VALID,23.3713,VALID,147,VALID,0,
2011-05-23, 02:03:04,VALID,999.122,VALID,0,VALID,93.3331,VALID,0,VALID,23.35,VALID,147,VALID,0,
2011-05-23, 02:04:04,VALID,999.122,VALID,0,VALID,93.3255,VALID,0,VALID,23.3518,VALID,140,VALID,0,
2011-05-23, 02:05:04,VALID,999.11,VALID,0,VALID,93.3331,VALID,0,VALID,23.3518,VALID,140,VALID,0,
2011-05-23, 02:06:04,VALID,999.13,VALID,0,VALID,93.3255,VALID,0,VALID,23.3305,VALID,120,VALID,0,
2011-05-23, 02:07:04,VALID,999.091,VALID,0,VALID,93.3179,VALID,0,VALID,23.3305,VALID,120,VALID,0.0703125,
2011-05-23, 02:08:04,VALID,999.134,VALID,0,VALID,93.295,VALID,0,VALID,23.3305,VALID,129,VALID,0.637109,
2011-05-23, 02:09:04,VALID,999.137,VALID,0,VALID,93.295,VALID,0,VALID,23.3713,VALID,129,VALID,0.752344,
2011-05-23, 02:10:04,VALID,999.143,VALID,0,VALID,93.2645,VALID,0,VALID,23.35,VALID,129,VALID,0.607031,
2011-05-23, 02:11:04,VALID,999.144,VALID,0,VALID,93.2721,VALID,0,VALID,23.3713,VALID,142,VALID,0.794531,
2011-05-23, 02:12:04,VALID,999.107,VALID,0,VALID,93.2568,VALID,0,VALID,23.389,VALID,150,VALID,0.787109,
2011-05-23, 02:13:04,VALID,999.147,VALID,0,VALID,93.2568,VALID,0,VALID,23.4085,VALID,150,VALID,0.70625,
2011-05-23, 02:14:04,VALID,999.132,VALID,0,VALID,93.2645,VALID,0,VALID,23.4493,VALID,150,VALID,0.825781,
2011-05-23, 02:15:04,VALID,999.129,VALID,0,VALID,93.234,VALID,0,VALID,23.4475,VALID,149,VALID,1.00391,
2011-05-23, 02:16:04,VALID,999.137,VALID,0,VALID,93.2034,VALID,0,VALID,23.4671,VALID,145,VALID,0.851172,
2011-05-23, 02:17:04,VALID,999.127,VALID,0,VALID,93.2187,VALID,0,VALID,23.4884,VALID,144,VALID,0.891406,
2011-05-23, 02:18:04,VALID,999.161,VALID,0,VALID,93.1729,VALID,0,VALID,23.5079,VALID,144,VALID,0.787891,
2011-05-23, 02:19:04,VALID,999.163,VALID,0,VALID,93.1805,VALID,0,VALID,23.4866,VALID,144,VALID,0.607813,
2011-05-23, 02:20:04,VALID,999.147,VALID,0,VALID,93.1577,VALID,0,VALID,23.4866,VALID,145,VALID,0.592578,
2011-05-23, 02:21:04,VALID,999.146,VALID,0,VALID,93.1271,VALID,0,VALID,23.4866,VALID,145,VALID,0.160156,
2011-05-23, 02:22:04,VALID,999.119,VALID,0,VALID,93.1271,VALID,0,VALID,23.4884,VALID,145,VALID,0.153516,
2011-05-23, 02:23:04,VALID,999.114,VALID,0,VALID,93.0814,VALID,0,VALID,23.4884,VALID,145,VALID,0.279297,
2011-05-23, 02:24:04,VALID,999.133,VALID,0,VALID,93.0737,VALID,0,VALID,23.4884,VALID,145,VALID,0,
2011-05-23, 02:25:04,VALID,999.136,VALID,0,VALID,93.0508,VALID,0,VALID,23.4671,VALID,145,VALID,0,
2011-05-23, 02:26:04,VALID,999.103,VALID,0,VALID,93.0356,VALID,0,VALID,23.4688,VALID,145,VALID,0.303516,
2011-05-23, 02:27:04,VALID,999.106,VALID,0,VALID,93.0127,VALID,0,VALID,23.428,VALID,145,VALID,0.352734,
2011-05-23, 02:28:04,VALID,999.068,VALID,0,VALID,93.0051,VALID,0,VALID,23.4493,VALID,145,VALID,0,
2011-05-23, 02:29:04,VALID,999.077,VALID,0,VALID,93.0051,VALID,0,VALID,23.4493,VALID,145,VALID,0,
2011-05-23, 02:30:04,VALID,999.049,VALID,0,VALID,92.9974,VALID,0,VALID,23.428,VALID,145,VALID,0,
2011-05-23, 02:31:04,VALID,999.011,VALID,0,VALID,92.9974,VALID,0,VALID,23.4085,VALID,145,VALID,0,
2011-05-23, 02:32:04,VALID,999.022,VALID,0,VALID,92.9745,VALID,0,VALID,23.4298,VALID,145,VALID,0,
2011-05-23, 02:33:04,VALID,999.036,VALID,0,VALID,92.9593,VALID,0,VALID,23.389,VALID,145,VALID,0,
2011-05-23, 02:34:04,VALID,999.008,VALID,0,VALID,92.9822,VALID,0,VALID,23.3908,VALID,145,VALID,0,
2011-05-23, 02:35:04,VALID,998.99,VALID,0,VALID,92.9745,VALID,0,VALID,23.3695,VALID,145,VALID,0,
2011-05-23, 02:36:04,VALID,998.996,VALID,0,VALID,92.9822,VALID,0,VALID,23.3908,VALID,145,VALID,0,
2011-05-23, 02:37:04,VALID,998.996,VALID,0,VALID,93.028,VALID,0,VALID,23.3695,VALID,145,VALID,0,
2011-05-23, 02:38:04,VALID,998.941,VALID,0,VALID,93.0356,VALID,0,VALID,23.35,VALID,145,VALID,0,
2011-05-23, 02:39:04,VALID,998.928,VALID,0,VALID,93.0356,VALID,0,VALID,23.35,VALID,145,VALID,0,
2011-05-23, 02:40:04,VALID,998.94,VALID,0,VALID,93.0508,VALID,0,VALID,23.3713,VALID,145,VALID,0,
2011-05-23, 02:41:04,VALID,998.914,VALID,0,VALID,93.0737,VALID,0,VALID,23.3518,VALID,145,VALID,0,
2011-05-23, 02:42:04,VALID,998.921,VALID,0,VALID,93.0966,VALID,0,VALID,23.3305,VALID,145,VALID,0,
2011-05-23, 02:43:04,VALID,998.892,VALID,0,VALID,93.1043,VALID,0,VALID,23.3305,VALID,145,VALID,0,
2011-05-23, 02:44:04,VALID,998.935,VALID,0,VALID,93.1271,VALID,0,VALID,23.3305,VALID,145,VALID,0,
2011-05-23, 02:45:04,VALID,998.902,VALID,0,VALID,93.15,VALID,0,VALID,23.35,VALID,145,VALID,0,
2011-05-23, 02:46:04,VALID,998.925,VALID,0,VALID,93.1653,VALID,0,VALID,23.3695,VALID,145,VALID,0,
2011-05-23, 02:47:04,VALID,998.942,VALID,0,VALID,93.1653,VALID,0,VALID,23.3695,VALID,105,VALID,0.525781,
2011-05-23, 02:48:04,VALID,999.002,VALID,0,VALID,93.1653,VALID,0,VALID,23.3305,VALID,4,VALID,0.642187,
2011-05-23, 02:49:04,VALID,999.005,VALID,0,VALID,93.1577,VALID,0,VALID,23.3305,VALID,304,VALID,0.745703,
2011-05-23, 02:50:04,VALID,998.996,VALID,0,VALID,93.15,VALID,0,VALID,23.3518,VALID,298,VALID,0.937109,
2011-05-23, 02:51:04,VALID,999.023,VALID,0,VALID,93.1424,VALID,0,VALID,23.35,VALID,322,VALID,0.504297,
2011-05-23, 02:52:04,VALID,998.991,VALID,0,VALID,93.1577,VALID,0,VALID,23.3305,VALID,341,VALID,0.395312,
2011-05-23, 02:53:04,VALID,999.005,VALID,0,VALID,93.15,VALID,0,VALID,23.3305,VALID,31,VALID,0.857031,
2011-05-23, 02:54:04,VALID,999.024,VALID,0,VALID,93.15,VALID,0,VALID,23.2719,VALID,36,VALID,0.875,
2011-05-23, 02:55:04,VALID,998.998,VALID,0,VALID,93.1653,VALID,0,VALID,23.2737,VALID,52,VALID,0.575,
2011-05-23, 02:56:04,VALID,998.993,VALID,0,VALID,93.1577,VALID,0,VALID,23.2347,VALID,57,VALID,0,
2011-05-23, 02:57:04,VALID,999.007,VALID,0,VALID,93.1577,VALID,0,VALID,23.2152,VALID,57,VALID,0,
2011-05-23, 02:58:04,VALID,998.968,VALID,0,VALID,93.1882,VALID,0,VALID,23.2152,VALID,57,VALID,0,
2011-05-23, 02:59:04,VALID,999.014,VALID,0,VALID,93.1958,VALID,0,VALID,23.1744,VALID,57,VALID,0,
2011-05-23, 03:00:04,VALID,998.996,VALID,0,VALID,93.2187,VALID,0,VALID,23.1921,VALID,57,VALID,0.0507813,
2011-05-23, 03:01:04,VALID,998.951,VALID,0,VALID,93.2187,VALID,0,VALID,23.1921,VALID,57,VALID,0.262109,
2011-05-23, 03:02:04,VALID,998.908,VALID,0,VALID,93.234,VALID,0.112286,VALID,23.1921,VALID,57,VALID,0.482422,
2011-05-23, 03:03:04,VALID,998.912,VALID,0,VALID,93.2416,VALID,0,VALID,23.1921,VALID,57,VALID,0.625781,
2011-05-23, 03:04:04,VALID,998.88,VALID,0,VALID,93.2645,VALID,0.112286,VALID,23.1726,VALID,57,VALID,0.395312,
2011-05-23, 03:05:04,VALID,998.873,VALID,0,VALID,93.2874,VALID,0.112286,VALID,23.1531,VALID,57,VALID,0.197266,
2011-05-23, 03:06:04,VALID,998.878,VALID,0,VALID,93.2568,VALID,0,VALID,23.1336,VALID,57,VALID,0,
2011-05-23, 03:07:04,VALID,998.867,VALID,0,VALID,93.295,VALID,0,VALID,23.1549,VALID,57,VALID,0,
2011-05-23, 03:08:04,VALID,998.842,VALID,0,VALID,93.3103,VALID,0,VALID,23.1336,VALID,2,VALID,0,
2011-05-23, 03:09:04,VALID,998.821,VALID,0,VALID,93.3331,VALID,0,VALID,23.1336,VALID,2,VALID,0,
2011-05-23, 03:10:04,VALID,998.811,VALID,0,VALID,93.3331,VALID,0,VALID,23.1336,VALID,2,VALID,0,
2011-05-23, 03:11:04,VALID,998.789,VALID,0,VALID,93.3484,VALID,0,VALID,23.1531,VALID,2,VALID,0,
2011-05-23, 03:12:04,VALID,998.807,VALID,0,VALID,93.356,VALID,0.112286,VALID,23.1531,VALID,2,VALID,0,
2011-05-23, 03:13:04,VALID,998.804,VALID,0,VALID,93.3637,VALID,0,VALID,23.1531,VALID,2,VALID,0,
2011-05-23, 03:14:04,VALID,998.806,VALID,0,VALID,93.3789,VALID,0.112286,VALID,23.1336,VALID,2,VALID,0,
2011-05-23, 03:15:04,VALID,998.8,VALID,0,VALID,93.3637,VALID,0,VALID,23.1159,VALID,2,VALID,0,
2011-05-23, 03:16:04,VALID,998.805,VALID,0,VALID,93.4018,VALID,0,VALID,23.1371,VALID,2,VALID,0,
2011-05-23, 03:17:04,VALID,998.846,VALID,0,VALID,93.4094,VALID,0,VALID,23.0769,VALID,2,VALID,0,
2011-05-23, 03:18:04,VALID,998.833,VALID,0,VALID,93.4247,VALID,0,VALID,23.0769,VALID,2,VALID,0,
2011-05-23, 03:19:04,VALID,998.863,VALID,0,VALID,93.4171,VALID,0,VALID,23.0769,VALID,2,VALID,0,
2011-05-23, 03:20:04,VALID,998.87,VALID,0,VALID,93.44,VALID,0,VALID,23.0769,VALID,2,VALID,0,
2011-05-23, 03:21:04,VALID,998.862,VALID,0,VALID,93.44,VALID,0,VALID,23.0573,VALID,2,VALID,0,
2011-05-23, 03:22:04,VALID,998.883,VALID,0,VALID,93.4552,VALID,0,VALID,23.0769,VALID,2,VALID,0,
2011-05-23, 03:23:04,VALID,998.844,VALID,0,VALID,93.4628,VALID,0,VALID,23.0769,VALID,2,VALID,0,
2011-05-23, 03:24:04,VALID,998.842,VALID,0,VALID,93.4705,VALID,0,VALID,23.0573,VALID,2,VALID,0,
2011-05-23, 03:25:04,VALID,998.848,VALID,0,VALID,93.4857,VALID,0,VALID,23.0769,VALID,2,VALID,0,
2011-05-23, 03:26:04,VALID,998.895,VALID,0,VALID,93.5086,VALID,0,VALID,23.0769,VALID,2,VALID,0,
2011-05-23, 03:27:04,VALID,998.827,VALID,0,VALID,93.501,VALID,0,VALID,23.0964,VALID,2,VALID,0,
2011-05-23, 03:28:04,VALID,998.849,VALID,0,VALID,93.501,VALID,0,VALID,23.1159,VALID,2,VALID,0,
2011-05-23, 03:29:04,VALID,998.842,VALID,0,VALID,93.5239,VALID,0,VALID,23.0964,VALID,2,VALID,0,
2011-05-23, 03:30:04,VALID,998.86,VALID,0,VALID,93.5391,VALID,0,VALID,23.0573,VALID,2,VALID,0,
2011-05-23, 03:31:04,VALID,998.836,VALID,0,VALID,93.5239,VALID,0,VALID,23.0378,VALID,2,VALID,0,
2011-05-23, 03:32:04,VALID,998.847,VALID,0.5,VALID,93.5544,VALID,0,VALID,22.9793,VALID,2,VALID,0.625391,
2011-05-23, 03:33:04,VALID,998.849,VALID,0,VALID,93.5315,VALID,0,VALID,22.9793,VALID,358,VALID,0.794922,
2011-05-23, 03:34:04,VALID,998.836,VALID,0,VALID,93.562,VALID,0,VALID,22.9793,VALID,339,VALID,0.572656,
2011-05-23, 03:35:04,VALID,998.879,VALID,0,VALID,93.5468,VALID,0,VALID,22.9598,VALID,339,VALID,0.438281,
2011-05-23, 03:36:04,VALID,998.827,VALID,0,VALID,93.5544,VALID,0,VALID,22.9598,VALID,339,VALID,0,
2011-05-23, 03:37:04,VALID,998.864,VALID,0,VALID,93.5544,VALID,0,VALID,22.9598,VALID,339,VALID,0,
2011-05-23, 03:38:04,VALID,998.845,VALID,0,VALID,93.562,VALID,0,VALID,22.9403,VALID,339,VALID,0,
2011-05-23, 03:39:04,VALID,998.855,VALID,0,VALID,93.562,VALID,0,VALID,22.9598,VALID,339,VALID,0,
2011-05-23, 03:40:04,VALID,998.831,VALID,0,VALID,93.5849,VALID,0,VALID,22.9208,VALID,339,VALID,0,
2011-05-23, 03:41:04,VALID,998.866,VALID,0,VALID,93.5849,VALID,0,VALID,22.9013,VALID,339,VALID,0,
2011-05-23, 03:42:04,VALID,998.878,VALID,0,VALID,93.5849,VALID,0,VALID,22.903,VALID,339,VALID,0,
2011-05-23, 03:43:04,VALID,998.876,VALID,0,VALID,93.5926,VALID,0,VALID,22.8623,VALID,339,VALID,0,
2011-05-23, 03:44:04,VALID,998.89,VALID,0,VALID,93.5926,VALID,0,VALID,22.8818,VALID,339,VALID,0,
2011-05-23, 03:45:04,VALID,998.886,VALID,0,VALID,93.6154,VALID,0,VALID,22.9013,VALID,339,VALID,0,
2011-05-23, 03:46:04,VALID,998.929,VALID,0,VALID,93.6231,VALID,0,VALID,22.9403,VALID,339,VALID,0,
2011-05-23, 03:47:04,VALID,998.886,VALID,0,VALID,93.6383,VALID,0,VALID,22.9598,VALID,339,VALID,0,
2011-05-23, 03:48:04,VALID,998.885,VALID,0,VALID,93.6307,VALID,0,VALID,22.9793,VALID,339,VALID,0,
2011-05-23, 03:49:04,VALID,998.916,VALID,0,VALID,93.646,VALID,0,VALID,22.9793,VALID,339,VALID,0,
2011-05-23, 03:50:04,VALID,998.921,VALID,0,VALID,93.6688,VALID,0,VALID,22.9598,VALID,339,VALID,0,
2011-05-23, 03:51:04,VALID,998.937,VALID,0,VALID,93.6612,VALID,0,VALID,22.9598,VALID,339,VALID,0,
2011-05-23, 03:52:04,VALID,998.919,VALID,0,VALID,93.6612,VALID,0,VALID,22.9403,VALID,339,VALID,0,
2011-05-23, 03:53:04,VALID,998.937,VALID,0,VALID,93.6688,VALID,0,VALID,22.9208,VALID,339,VALID,0,
2011-05-23, 03:54:04,VALID,998.931,VALID,0,VALID,93.6917,VALID,0,VALID,22.9013,VALID,339,VALID,0,
2011-05-23, 03:55:04,VALID,998.938,VALID,0,VALID,93.6765,VALID,0,VALID,22.903,VALID,339,VALID,0,